Location: Newark
(35.6799°N, 139.7636°E)
Time: 19:42:35
(UTC+00:00)

Courier 1B - Pass Details

Date: 10 December 2019
Orbit: 962 x 1209 km, 28.3° (Epoch: 28 January)

Event Time Altitude Azimuth Distance (km) Brightness Sun altitude
Rises 09:09:10 0° 194° (SSW) 3,803 11.0 -20.0°
Reaches altitude 10° 09:15:50 10° 149° (SSE) 2,943 9.8 -21.4°
Maximum altitude 09:16:04 10° 147° (SSE) 2,945 9.8 -21.4°
Drops below altitude 10° 09:16:15 10° 146° (SE) 2,948 9.8 -21.4°
Enters shadow 09:17:25 10° 136° (SE) 3,004 9.8 -21.7°
